Time,TemperatureF,DewpointF,PressureIn,WindDirection,WindDirectionDegrees,WindSpeedMPH,WindSpeedGustMPH,Humidity,HourlyPrecipIn,Conditions,Clouds,dailyrainin,SolarRadiationWatts/m^2,SoftwareType,DateUTC
2013-02-26 00:13:00,32.2,28.0,29.94,East,86,5.0,10.0,83,0.00,,,0.00,0,weatherlink.com 1.10,2013-02-26 05:13:00,
2013-02-26 00:28:00,32.2,27.0,29.93,ENE,66,9.0,14.0,82,0.00,,,0.00,0,weatherlink.com 1.10,2013-02-26 05:28:00,
2013-02-26 00:43:00,31.9,27.0,29.93,ENE,62,3.0,10.0,82,0.00,,,0.00,0,weatherlink.com 1.10,2013-02-26 05:43:00,
2013-02-26 00:59:00,31.9,27.0,29.92,ENE,78,5.0,17.0,81,0.00,,,0.00,0,weatherlink.com 1.10,2013-02-26 05:59:00,
2013-02-26 01:13:00,31.8,26.0,29.91,NE,43,6.0,18.0,80,0.00,,,0.00,0,weatherlink.com 1.10,2013-02-26 06:13:00,
2013-02-26 01:29:00,31.7,26.0,29.91,ENE,62,10.0,14.0,79,0.00,,,0.00,0,weatherlink.com 1.10,2013-02-26 06:29:00,
2013-02-26 01:44:00,31.6,26.0,29.90,ENE,60,5.0,15.0,79,0.00,,,0.00,0,weatherlink.com 1.10,2013-02-26 06:44:00,
2013-02-26 01:59:00,31.4,26.0,29.89,ENE,73,5.0,13.0,80,0.00,,,0.00,0,weatherlink.com 1.10,2013-02-26 06:59:00,
2013-02-26 02:14:00,31.5,26.0,29.89,East,83,8.0,16.0,79,0.00,,,0.00,0,weatherlink.com 1.10,2013-02-26 07:14:00,
2013-02-26 02:29:00,31.4,26.0,29.89,NE,54,10.0,15.0,79,0.00,,,0.00,0,weatherlink.com 1.10,2013-02-26 07:29:00,
2013-02-26 02:45:00,31.2,26.0,29.86,ESE,104,10.0,16.0,80,0.00,,,0.00,0,weatherlink.com 1.10,2013-02-26 07:45:00,
2013-02-26 02:59:00,31.2,26.0,29.86,East,86,2.0,16.0,80,0.00,,,0.00,0,weatherlink.com 1.10,2013-02-26 07:59:00,
2013-02-26 03:15:00,31.2,26.0,29.86,ENE,62,12.0,15.0,80,0.00,,,0.00,0,weatherlink.com 1.10,2013-02-26 08:15:00,
2013-02-26 03:30:00,31.3,26.0,29.83,ENE,61,12.0,14.0,80,0.00,,,0.00,0,weatherlink.com 1.10,2013-02-26 08:30:00,
2013-02-26 03:46:00,31.5,26.0,29.79,NE,54,9.0,22.0,79,0.00,,,0.00,0,weatherlink.com 1.10,2013-02-26 08:46:00,
2013-02-26 04:00:00,31.6,26.0,29.79,NE,39,9.0,16.0,79,0.00,,,0.00,0,weatherlink.com 1.10,2013-02-26 09:00:00,
2013-02-26 04:15:00,31.7,26.0,29.80,ENE,71,17.0,18.0,78,0.00,,,0.00,0,weatherlink.com 1.10,2013-02-26 09:15:00,
2013-02-26 04:30:00,31.8,26.0,29.80,ENE,68,11.0,18.0,78,0.00,,,0.00,0,weatherlink.com 1.10,2013-02-26 09:30:00,
2013-02-26 04:49:00,31.7,26.0,29.78,East,84,7.0,16.0,79,0.00,,,0.00,0,weatherlink.com 1.10,2013-02-26 09:49:00,
2013-02-26 05:00:00,31.7,26.0,29.78,NE,50,10.0,17.0,79,0.00,,,0.00,0,weatherlink.com 1.10,2013-02-26 10:00:00,
2013-02-26 05:16:00,31.6,26.0,29.76,NE,48,11.0,21.0,79,0.00,,,0.00,0,weatherlink.com 1.10,2013-02-26 10:16:00,
2013-02-26 05:31:00,31.7,26.0,29.76,NE,54,12.0,16.0,79,0.00,,,0.00,0,weatherlink.com 1.10,2013-02-26 10:31:00,
2013-02-26 05:46:00,31.9,26.0,29.75,NE,53,6.0,18.0,78,0.00,,,0.00,0,weatherlink.com 1.10,2013-02-26 10:46:00,
2013-02-26 06:01:00,32.0,26.0,29.71,East,87,13.0,27.0,77,0.00,,,0.00,0,weatherlink.com 1.10,2013-02-26 11:01:00,
2013-02-26 06:16:00,32.1,26.0,29.72,ENE,76,7.0,16.0,77,0.00,,,0.00,0,weatherlink.com 1.10,2013-02-26 11:16:00,
2013-02-26 06:31:00,32.5,26.0,29.73,ENE,66,9.0,26.0,76,0.00,,,0.00,0,weatherlink.com 1.10,2013-02-26 11:31:00,
2013-02-26 06:46:00,32.5,25.0,29.71,ENE,64,10.0,25.0,75,0.00,,,0.00,0,weatherlink.com 1.10,2013-02-26 11:46:00,
2013-02-26 07:01:00,32.5,25.0,29.69,ENE,65,16.0,28.0,75,0.00,,,0.00,0,weatherlink.com 1.10,2013-02-26 12:01:00,
2013-02-26 07:17:00,32.7,25.0,29.71,ENE,62,9.0,19.0,74,0.00,,,0.00,0,weatherlink.com 1.10,2013-02-26 12:17:00,
2013-02-26 07:32:00,32.9,25.0,29.72,ESE,121,5.0,23.0,73,0.00,,,0.00,0,weatherlink.com 1.10,2013-02-26 12:32:00,
2013-02-26 07:48:00,33.2,25.0,29.74,East,83,10.0,18.0,73,0.00,,,0.00,11,weatherlink.com 1.10,2013-02-26 12:48:00,
2013-02-26 08:02:00,33.3,26.0,29.72,ENE,76,12.0,18.0,73,0.00,,,0.00,11,weatherlink.com 1.10,2013-02-26 13:02:00,
2013-02-26 08:18:00,33.5,25.0,29.70,ENE,71,9.0,18.0,72,0.00,,,0.00,18,weatherlink.com 1.10,2013-02-26 13:18:00,
2013-02-26 08:32:00,33.7,26.0,29.68,East,87,15.0,19.0,72,0.00,,,0.00,21,weatherlink.com 1.10,2013-02-26 13:32:00,
2013-02-26 08:47:00,33.8,25.0,29.68,East,95,9.0,19.0,71,0.00,,,0.00,21,weatherlink.com 1.10,2013-02-26 13:47:00,
2013-02-26 09:02:00,33.5,27.0,29.66,ENE,64,13.0,21.0,76,0.01,,,0.01,12,weatherlink.com 1.10,2013-02-26 14:02:00,
2013-02-26 09:18:00,32.9,28.0,29.63,ENE,70,10.0,23.0,81,0.05,,,0.05,16,weatherlink.com 1.10,2013-02-26 14:18:00,
2013-02-26 09:33:00,32.8,28.0,29.61,ENE,57,7.0,21.0,82,0.09,,,0.09,28,weatherlink.com 1.10,2013-02-26 14:33:00,
2013-02-26 09:48:00,32.7,28.0,29.59,ENE,64,7.0,21.0,83,0.11,,,0.11,44,weatherlink.com 1.10,2013-02-26 14:48:00,
2013-02-26 10:03:00,32.9,28.0,29.58,ENE,64,0.0,0.0,83,0.10,,,0.12,51,weatherlink.com 1.10,2013-02-26 15:03:00,
2013-02-26 10:18:00,32.9,28.0,29.57,ENE,64,0.0,0.0,83,0.08,,,0.13,47,weatherlink.com 1.10,2013-02-26 15:18:00,
2013-02-26 10:33:00,32.8,29.0,29.55,ENE,64,0.0,0.0,84,0.05,,,0.14,67,weatherlink.com 1.10,2013-02-26 15:33:00,
2013-02-26 10:48:00,32.9,28.0,29.55,ENE,64,0.0,0.0,83,0.04,,,0.15,109,weatherlink.com 1.10,2013-02-26 15:48:00,
2013-02-26 11:04:00,33.2,29.0,29.52,ENE,64,0.0,0.0,84,0.04,,,0.16,211,weatherlink.com 1.10,2013-02-26 16:04:00,
2013-02-26 11:19:00,33.4,29.0,29.51,ENE,64,0.0,0.0,84,0.04,,,0.18,81,weatherlink.com 1.10,2013-02-26 16:19:00,
2013-02-26 11:34:00,33.6,29.0,29.49,ENE,64,0.0,0.0,83,0.04,,,0.18,116,weatherlink.com 1.10,2013-02-26 16:34:00,
2013-02-26 11:49:00,33.5,29.0,29.48,ENE,64,0.0,0.0,84,0.05,,,0.20,70,weatherlink.com 1.10,2013-02-26 16:49:00,
2013-02-26 12:04:00,33.6,30.0,29.49,ENE,65,0.0,0.0,85,0.05,,,0.21,40,weatherlink.com 1.10,2013-02-26 17:04:00,
2013-02-26 12:19:00,33.3,30.0,29.52,ENE,65,0.0,0.0,88,0.09,,,0.27,26,weatherlink.com 1.10,2013-02-26 17:19:00,
2013-02-26 12:34:00,33.0,30.0,29.51,East,98,0.0,0.0,90,0.16,,,0.35,40,weatherlink.com 1.10,2013-02-26 17:34:00,
2013-02-26 12:50:00,32.8,31.0,29.51,East,81,0.0,0.0,91,0.21,,,0.41,26,weatherlink.com 1.10,2013-02-26 17:50:00,
2013-02-26 13:05:00,32.7,31.0,29.49,ENE,68,0.0,0.0,92,0.20,,,0.42,30,weatherlink.com 1.10,2013-02-26 18:05:00,
2013-02-26 13:21:00,32.9,31.0,29.47,ENE,72,0.0,0.0,93,0.18,,,0.46,39,weatherlink.com 1.10,2013-02-26 18:21:00,
2013-02-26 13:35:00,33.0,31.0,29.46,East,80,0.0,0.0,93,0.12,,,0.48,39,weatherlink.com 1.10,2013-02-26 18:35:00,
2013-02-26 13:50:00,33.1,31.0,29.45,ENE,60,0.0,0.0,93,0.11,,,0.52,33,weatherlink.com 1.10,2013-02-26 18:50:00,
2013-02-26 14:05:00,33.2,31.0,29.45,ENE,72,7.0,13.0,93,0.13,,,0.55,39,weatherlink.com 1.10,2013-02-26 19:05:00,
2013-02-26 14:20:00,33.3,32.0,29.44,ENE,74,10.0,15.0,93,0.11,,,0.57,54,weatherlink.com 1.10,2013-02-26 19:20:00,
2013-02-26 14:35:00,33.5,32.0,29.43,ENE,75,7.0,15.0,93,0.10,,,0.59,51,weatherlink.com 1.10,2013-02-26 19:35:00,
2013-02-26 14:51:00,33.4,32.0,29.42,ESE,106,7.0,15.0,94,0.08,,,0.60,46,weatherlink.com 1.10,2013-02-26 19:51:00,
2013-02-26 15:06:00,33.5,32.0,29.42,ENE,66,9.0,15.0,94,0.06,,,0.61,28,weatherlink.com 1.10,2013-02-26 20:06:00,
2013-02-26 15:21:00,33.6,32.0,29.42,ENE,78,7.0,17.0,94,0.05,,,0.62,26,weatherlink.com 1.10,2013-02-26 20:21:00,
2013-02-26 15:36:00,33.8,32.0,29.42,ENE,77,8.0,16.0,94,0.05,,,0.64,67,weatherlink.com 1.10,2013-02-26 20:36:00,
2013-02-26 15:51:00,33.9,32.0,29.42,NE,54,11.0,16.0,94,0.06,,,0.66,46,weatherlink.com 1.10,2013-02-26 20:51:00,
2013-02-26 16:06:00,33.9,32.0,29.42,East,81,6.0,17.0,94,0.06,,,0.67,32,weatherlink.com 1.10,2013-02-26 21:06:00,
2013-02-26 16:21:00,33.9,32.0,29.42,East,88,9.0,19.0,94,0.06,,,0.68,32,weatherlink.com 1.10,2013-02-26 21:21:00,
2013-02-26 16:36:00,33.8,32.0,29.42,ENE,77,5.0,18.0,94,0.05,,,0.69,42,weatherlink.com 1.10,2013-02-26 21:36:00,
2013-02-26 16:51:00,33.7,33.0,29.41,East,95,7.0,14.0,95,0.04,,,0.70,25,weatherlink.com 1.10,2013-02-26 21:51:00,
2013-02-26 17:08:00,33.6,32.0,29.41,ENE,62,7.0,14.0,95,0.04,,,0.71,25,weatherlink.com 1.10,2013-02-26 22:08:00,
2013-02-26 17:22:00,33.6,32.0,29.41,ENE,67,8.0,11.0,94,0.03,,,0.71,25,weatherlink.com 1.10,2013-02-26 22:22:00,
2013-02-26 17:37:00,33.5,32.0,29.42,ENE,77,8.0,15.0,94,0.03,,,0.72,14,weatherlink.com 1.10,2013-02-26 22:37:00,
2013-02-26 17:52:00,33.4,32.0,29.42,ENE,73,5.0,14.0,94,0.02,,,0.72,11,weatherlink.com 1.10,2013-02-26 22:52:00,
2013-02-26 18:07:00,33.3,32.0,29.42,ENE,64,4.0,13.0,94,0.01,,,0.72,11,weatherlink.com 1.10,2013-02-26 23:07:00,
2013-02-26 18:22:00,33.1,32.0,29.43,ENE,73,4.0,11.0,95,0.01,,,0.72,5,weatherlink.com 1.10,2013-02-26 23:22:00,
2013-02-26 18:38:00,33.0,32.0,29.42,ENE,66,7.0,12.0,95,0.01,,,0.73,0,weatherlink.com 1.10,2013-02-26 23:38:00,
2013-02-26 18:53:00,33.0,32.0,29.42,NE,53,3.0,10.0,95,0.01,,,0.73,0,weatherlink.com 1.10,2013-02-26 23:53:00,
2013-02-26 19:07:00,33.0,32.0,29.42,ENE,65,3.0,9.0,95,0.02,,,0.74,0,weatherlink.com 1.10,2013-02-27 00:07:00,
2013-02-26 19:23:00,33.0,32.0,29.42,ENE,64,5.0,11.0,95,0.02,,,0.74,0,weatherlink.com 1.10,2013-02-27 00:23:00,
2013-02-26 19:39:00,33.0,32.0,29.43,NE,52,5.0,9.0,95,0.01,,,0.74,0,weatherlink.com 1.10,2013-02-27 00:39:00,
2013-02-26 19:54:00,32.9,32.0,29.42,ENE,68,3.0,9.0,95,0.01,,,0.74,0,weatherlink.com 1.10,2013-02-27 00:54:00,
2013-02-26 20:09:00,32.8,32.0,29.42,ENE,66,5.0,7.0,95,0.00,,,0.74,0,weatherlink.com 1.10,2013-02-27 01:09:00,
2013-02-26 20:23:00,32.8,32.0,29.42,NE,52,5.0,8.0,95,0.00,,,0.74,0,weatherlink.com 1.10,2013-02-27 01:23:00,
2013-02-26 20:38:00,32.8,32.0,29.42,ENE,63,2.0,7.0,96,0.00,,,0.74,0,weatherlink.com 1.10,2013-02-27 01:38:00,
2013-02-26 20:54:00,32.7,32.0,29.41,ENE,60,3.0,8.0,96,0.00,,,0.74,0,weatherlink.com 1.10,2013-02-27 01:54:00,
2013-02-26 21:08:00,32.7,32.0,29.41,NE,49,4.0,6.0,96,0.00,,,0.74,0,weatherlink.com 1.10,2013-02-27 02:08:00,
2013-02-26 21:23:00,32.7,32.0,29.42,NE,49,3.0,5.0,96,0.01,,,0.75,0,weatherlink.com 1.10,2013-02-27 02:23:00,
2013-02-26 21:38:00,32.7,32.0,29.42,NE,49,3.0,4.0,96,0.01,,,0.75,0,weatherlink.com 1.10,2013-02-27 02:38:00,
2013-02-26 21:54:00,32.8,32.0,29.42,NE,49,2.0,5.0,96,0.01,,,0.75,0,weatherlink.com 1.10,2013-02-27 02:54:00,
2013-02-26 22:09:00,32.8,32.0,29.42,NE,49,4.0,4.0,96,0.01,,,0.75,0,weatherlink.com 1.10,2013-02-27 03:09:00,
2013-02-26 22:25:00,32.8,32.0,29.41,NE,49,1.0,5.0,96,0.00,,,0.75,0,weatherlink.com 1.10,2013-02-27 03:25:00,
2013-02-26 22:39:00,32.7,32.0,29.41,NE,49,2.0,3.0,96,0.00,,,0.75,0,weatherlink.com 1.10,2013-02-27 03:39:00,
2013-02-26 22:54:00,32.5,32.0,29.41,NE,49,0.0,4.0,96,0.00,,,0.75,0,weatherlink.com 1.10,2013-02-27 03:54:00,
2013-02-26 23:09:00,32.5,32.0,29.41,NE,49,1.0,3.0,96,0.00,,,0.75,0,weatherlink.com 1.10,2013-02-27 04:09:00,
2013-02-26 23:24:00,32.5,32.0,29.41,NE,49,1.0,2.0,96,0.00,,,0.75,0,weatherlink.com 1.10,2013-02-27 04:24:00,
2013-02-26 23:39:00,32.5,32.0,29.41,NE,49,2.0,4.0,96,0.00,,,0.75,0,weatherlink.com 1.10,2013-02-27 04:39:00,
2013-02-26 23:54:00,32.5,32.0,29.41,NE,49,0.0,3.0,96,0.00,,,0.75,0,weatherlink.com 1.10,2013-02-27 04:54:00,